Location: American Medical Response
(33.3472°N, 96.5511°W)
Time: 04:28:56
(UTC+00:00)

H-2A R/B - Pass Details

Date: 04 July 2022
Orbit: 576 x 652 km, 98.5° (Epoch: 17 August)

Event Time Altitude Azimuth Distance (km) Brightness Sun altitude
Rises 03:25:38 0° 358° (N) 2,944 6.3 -18.6°
Reaches altitude 10° 03:28:06 10° 346° (NNW) 2,041 5.6 -18.9°
Maximum altitude 03:31:48 26° 290° (WNW) 1,263 4.3 -19.5°
Drops below altitude 10° 03:35:31 10° 233° (SW) 2,050 4.8 -20.0°
Sets 03:38:00 0° 221° (SW) 2,959 5.5 -20.3°
